Home > Time Zones > World Clock > Weather > Serbia > Niš > Past weeks

Flag for Serbia Weather past 2 weeks in Niš, Serbia

Now
66 °F

Sunny.


Feels Like: 66 °F
Forecast: 69 / 93 °F
Wind: 2 mph from North

Location: Nis Airport

Current Time: Jul 29, 2015 at 7:06:47 AM

Latest Report: Jul 29, 2015 at 6:30 AM


Visibility: 10 mi

Pressure: 29.83 "Hg

Humidity: 78%

Dew point: 59 °F

Location of NišLocation

Historic Weather in Niš — Graph

°F

Niš temperature yesterday

Maximum temperature yesterday: 86 °F (at 3:30 PM)
Minimum temperature yesterday: 64 °F (at 5:00 AM)
Average temperature yesterday: 75 °F

Past Weeks' High & Low Weather Summary

 TemperatureHumidityPressure
High99 °F (Jul 18, 4:30 PM)88% (Jul 14, 6:30 AM)30.15 "Hg (Jul 14, 6:30 AM)
Low59 °F (Jul 15, 5:00 AM)16% (Jul 25, 5:30 PM)29.65 "Hg (Jul 27, 6:30 PM)
Average80 °F50%29.93 "Hg
* Reported Jul 14 6:00 AM — Jul 29 6:00 AM, Niš, Weather by CustomWeather, © 2015

Note: Actual official high and low records may vary slightly from our data, if they occured in-between our weather recording intervals... More about our weather records

Advertising

Niš weather history for previous 24 hours

 ConditionsComfort  
Time TempWeatherWind HumidityBarometerVisibility
6:00 AM
Wed, Jul 29
64 °FClear.3 mph78%29.83 "Hg10 mi
5:00 AM64 °FClear.2 mph78%29.83 "Hg10 mi
4:30 AM64 °FClear.3 mph78%29.83 "Hg10 mi
4:00 AM64 °FClear.2 mph78%29.83 "Hg10 mi
3:30 AM66 °FClear.5 mph73%29.83 "Hg10 mi
3:00 AM66 °FClear.5 mph73%29.83 "Hg10 mi
2:30 AM68 °FClear.3 mph69%29.83 "Hg10 mi
2:00 AM68 °FClear.2 mph69%29.83 "Hg10 mi
1:30 AM66 °FClear.2 mph73%29.83 "Hg10 mi
1:00 AM66 °FClear.1 mph73%29.83 "Hg10 mi
12:30 AM70 °FClear.2 mph64%29.83 "Hg10 mi
12:00 AM70 °FClear.3 mph64%29.83 "Hg10 mi
11:30 PM
Tue, Jul 28
72 °FPassing clouds.3 mph61%29.83 "HgN/A
11:00 PM72 °FClear.2 mph61%29.83 "Hg10 mi
10:30 PM70 °FClear.No wind57%29.83 "Hg10 mi
10:00 PM75 °FClear.No wind47%29.83 "Hg10 mi
9:30 PM77 °FClear.3 mph42%29.83 "Hg10 mi
9:00 PM77 °FClear.5 mph39%29.80 "Hg10 mi
8:30 PM79 °FSunny.6 mph37%29.80 "Hg10 mi
8:00 PM79 °FSunny.7 mph39%29.80 "Hg10 mi
7:30 PM82 °FPassing clouds.8 mph32%29.80 "HgN/A
7:00 PM84 °FSunny.12 mph35%29.80 "Hg10 mi
6:30 PM84 °FSunny.12 mph40%29.80 "Hg10 mi
6:00 PM86 °FSunny.13 mph35%29.80 "Hg10 mi
5:30 PM86 °FPassing clouds.13 mph31%29.80 "HgN/A
5:00 PM86 °FPassing clouds.15 mph33%29.80 "HgN/A
4:30 PM86 °FSunny.14 mph31%29.80 "Hg10 mi
4:00 PM86 °FPassing clouds.8 mph33%29.80 "HgN/A
3:30 PM86 °FPassing clouds.8 mph33%29.80 "HgN/A
3:00 PM84 °FPassing clouds.10 mph35%29.83 "HgN/A
2:30 PM82 °FPassing clouds.12 mph42%29.83 "HgN/A
2:00 PM82 °FPassing clouds.13 mph45%29.86 "HgN/A
1:30 PM81 °FPassing clouds.13 mph48%29.86 "HgN/A
1:00 PM79 °FPassing clouds.13 mph54%29.86 "HgN/A
12:30 PM79 °FPassing clouds.15 mph54%29.86 "HgN/A
12:00 PM77 °FPassing clouds.15 mph57%29.89 "HgN/A
11:30 AM75 °FPassing clouds.14 mph61%29.89 "HgN/A
11:00 AM75 °FPassing clouds.16 mph61%29.89 "HgN/A
10:30 AM72 °FScattered clouds.12 mph69%29.89 "HgN/A
10:00 AM72 °FBroken clouds.12 mph73%29.89 "HgN/A
9:30 AM72 °FBroken clouds.10 mph73%29.89 "HgN/A
9:00 AM70 °FBroken clouds.13 mph78%29.89 "HgN/A
8:30 AM70 °FBroken clouds.12 mph78%29.89 "HgN/A
8:00 AM68 °FScattered clouds.8 mph83%29.89 "HgN/A
7:30 AM68 °FPartly sunny.8 mph78%29.86 "HgN/A
7:00 AM66 °FPartly sunny.10 mph83%29.86 "HgN/A
Weather by CustomWeather, © 2015

See weather overviewHow to use our weather pages